UAE314 OMDB-WSSS

Flight info

Callsign UAE314
Flight time N/A
Altitude 35000
Route IVURO M677 LALDO B505 NADSO A777 VAXIM P307 PARAR N571 LAGOG/N0483F370 N571 GUNIP M630 NIREN Y511 TOPOR A464 ARAMA DCT TEBUN TEBUN1A
Aircraft B77W/H-SDE1E2E3FGHIJ2J3J4J5M1RWXY/LB1D1

Departure

Time 2026-04-24 20:54
Airport Dubai International Airport (OMDB)

Arrival

Time N/A
Airport Singapore Changi Airport (WSSS)
Time Latitude Longitude Altitude Speed Heading
2026-04-24 19:43 25.24889 55.35887 27 ft 0 kts 31°
2026-04-24 20:18 25.24877 55.35880 26 ft 2 kts 28°
2026-04-24 20:18 25.24865 55.35873 25 ft 2 kts 26°
2026-04-24 20:18 25.24853 55.35867 25 ft 2 kts 20°
2026-04-24 20:19 25.24841 55.35863 24 ft 2 kts 10°
2026-04-24 20:19 25.24829 55.35861 25 ft 2 kts 354°
2026-04-24 20:19 25.24818 55.35864 25 ft 2 kts 333°
2026-04-24 20:19 25.24809 55.35870 24 ft 2 kts 316°
2026-04-24 20:20 25.24802 55.35878 25 ft 1 kts 308°
2026-04-24 20:20 25.24798 55.35884 25 ft 1 kts 305°
2026-04-24 20:20 25.24795 55.35889 24 ft 1 kts 303°
2026-04-24 20:20 25.24792 55.35894 25 ft 1 kts 302°
2026-04-24 20:21 25.24790 55.35898 25 ft 0 kts 301°
2026-04-24 20:24 25.24801 55.35878 27 ft 4 kts 301°
2026-04-24 20:24 25.24817 55.35849 27 ft 5 kts 300°
2026-04-24 20:25 25.24833 55.35810 27 ft 6 kts 289°
2026-04-24 20:25 25.24841 55.35768 27 ft 6 kts 276°
2026-04-24 20:25 25.24845 55.35722 27 ft 7 kts 275°
2026-04-24 20:25 25.24865 55.35639 27 ft 15 kts 296°
2026-04-24 20:26 25.24925 55.35531 27 ft 19 kts 302°
2026-04-24 20:26 25.24976 55.35442 27 ft 13 kts 301°
2026-04-24 20:26 25.25030 55.35345 27 ft 16 kts 302°
2026-04-24 20:26 25.25087 55.35247 27 ft 15 kts 305°
2026-04-24 20:27 25.25148 55.35158 27 ft 14 kts 307°
2026-04-24 20:27 25.25202 55.35066 27 ft 14 kts 302°
2026-04-24 20:27 25.25254 55.34974 27 ft 14 kts 302°
2026-04-24 20:27 25.25308 55.34883 27 ft 14 kts 309°
2026-04-24 20:28 25.25380 55.34825 27 ft 13 kts 338°
2026-04-24 20:28 25.25405 55.34809 27 ft 0 kts 315°
2026-04-24 20:29 25.25406 55.34807 27 ft 0 kts 312°
2026-04-24 20:29 25.25407 55.34807 27 ft 1 kts 311°
2026-04-24 20:30 25.25407 55.34806 27 ft 0 kts 309°
2026-04-24 20:31 25.25404 55.34811 27 ft 2 kts 309°
2026-04-24 20:31 25.25395 55.34823 27 ft 2 kts 309°
2026-04-24 20:31 25.25386 55.34835 27 ft 2 kts 309°
2026-04-24 20:31 25.25385 55.34836 27 ft 0 kts 309°
2026-04-24 20:32 25.25386 55.34834 27 ft 1 kts 312°
2026-04-24 20:32 25.25396 55.34827 27 ft 2 kts 327°
2026-04-24 20:32 25.25407 55.34822 27 ft 2 kts 339°
2026-04-24 20:32 25.25425 55.34817 27 ft 5 kts 349°
2026-04-24 20:33 25.25464 55.34817 27 ft 6 kts
2026-04-24 20:33 25.25506 55.34830 27 ft 6 kts 21°
2026-04-24 20:33 25.25545 55.34852 27 ft 6 kts 30°
2026-04-24 20:33 25.25583 55.34877 27 ft 6 kts 30°
2026-04-24 20:34 25.25622 55.34903 27 ft 7 kts 31°
2026-04-24 20:34 25.25651 55.34922 27 ft 0 kts 31°
2026-04-24 20:35 25.25661 55.34929 27 ft 5 kts 31°
2026-04-24 20:35 25.25703 55.34957 27 ft 8 kts 31°
2026-04-24 20:35 25.25749 55.34988 27 ft 7 kts 31°
2026-04-24 20:36 25.25753 55.34992 27 ft 1 kts 31°
2026-04-24 20:36 25.25769 55.35002 27 ft 6 kts 31°
2026-04-24 20:36 25.25810 55.35029 27 ft 7 kts 31°
2026-04-24 20:36 25.25853 55.35058 27 ft 7 kts 31°
2026-04-24 20:37 25.25896 55.35087 27 ft 7 kts 31°
2026-04-24 20:37 25.25939 55.35115 27 ft 7 kts 31°
2026-04-24 20:37 25.25982 55.35144 27 ft 7 kts 31°
2026-04-24 20:37 25.26025 55.35173 27 ft 7 kts 31°
2026-04-24 20:38 25.26067 55.35202 27 ft 7 kts 31°
2026-04-24 20:38 25.26110 55.35231 27 ft 7 kts 31°
2026-04-24 20:38 25.26141 55.35270 27 ft 7 kts 85°
2026-04-24 20:38 25.26120 55.35321 27 ft 7 kts 120°
2026-04-24 20:39 25.26092 55.35372 27 ft 9 kts 121°
2026-04-24 20:39 25.26049 55.35448 27 ft 14 kts 121°
2026-04-24 20:39 25.25998 55.35539 27 ft 14 kts 121°
2026-04-24 20:39 25.25947 55.35630 27 ft 14 kts 122°
2026-04-24 20:40 25.25896 55.35721 27 ft 14 kts 122°
2026-04-24 20:40 25.25845 55.35812 27 ft 14 kts 122°
2026-04-24 20:40 25.25794 55.35903 27 ft 14 kts 122°
2026-04-24 20:40 25.25742 55.35994 27 ft 14 kts 122°
2026-04-24 20:41 25.25691 55.36084 27 ft 14 kts 122°
2026-04-24 20:41 25.25640 55.36175 27 ft 14 kts 122°
2026-04-24 20:41 25.25589 55.36266 27 ft 14 kts 122°
2026-04-24 20:41 25.25538 55.36357 27 ft 14 kts 122°
2026-04-24 20:42 25.25487 55.36448 27 ft 14 kts 122°
2026-04-24 20:42 25.25436 55.36539 27 ft 14 kts 122°
2026-04-24 20:42 25.25397 55.36608 27 ft 7 kts 122°
2026-04-24 20:42 25.25371 55.36655 27 ft 7 kts 122°
2026-04-24 20:43 25.25344 55.36703 27 ft 7 kts 122°
2026-04-24 20:43 25.25317 55.36751 27 ft 8 kts 121°
2026-04-24 20:43 25.25283 55.36812 27 ft 11 kts 122°
2026-04-24 20:43 25.25239 55.36890 27 ft 13 kts 122°
2026-04-24 20:44 25.25192 55.36974 27 ft 13 kts 122°
2026-04-24 20:44 25.25145 55.37058 27 ft 13 kts 122°
2026-04-24 20:44 25.25089 55.37158 27 ft 17 kts 122°
2026-04-24 20:44 25.25024 55.37272 27 ft 17 kts 121°
2026-04-24 20:45 25.24967 55.37375 27 ft 16 kts 122°
2026-04-24 20:45 25.24909 55.37477 27 ft 16 kts 122°
2026-04-24 20:45 25.24856 55.37571 27 ft 14 kts 122°
2026-04-24 20:45 25.24813 55.37649 27 ft 11 kts 121°
2026-04-24 20:46 25.24794 55.37682 27 ft 3 kts 121°
2026-04-24 20:46 25.24781 55.37705 27 ft 5 kts 121°
2026-04-24 20:46 25.24755 55.37752 27 ft 8 kts 121°
2026-04-24 20:46 25.24727 55.37803 27 ft 8 kts 122°
2026-04-24 20:47 25.24698 55.37853 27 ft 8 kts 122°
2026-04-24 20:47 25.24669 55.37903 27 ft 8 kts 122°
2026-04-24 20:47 25.24644 55.37948 27 ft 6 kts 122°
2026-04-24 20:47 25.24624 55.37984 27 ft 6 kts 118°
2026-04-24 20:48 25.24621 55.38020 27 ft 4 kts 60°
2026-04-24 20:48 25.24641 55.38045 27 ft 4 kts 38°
2026-04-24 20:48 25.24643 55.38046 27 ft 0 kts 38°
2026-04-24 20:51 25.24657 55.38057 27 ft 4 kts 36°
2026-04-24 20:51 25.24667 55.38065 27 ft 0 kts 34°
2026-04-24 20:52 25.24669 55.38066 27 ft 2 kts 31°
2026-04-24 20:52 25.24691 55.38081 27 ft 5 kts 31°
2026-04-24 20:53 25.24720 55.38101 27 ft 5 kts 31°
2026-04-24 20:53 25.24754 55.38104 27 ft 5 kts 337°
2026-04-24 20:53 25.24779 55.38074 27 ft 5 kts 306°
2026-04-24 20:53 25.24857 55.37937 27 ft 49 kts 302°
2026-04-24 20:54 25.25163 55.37382 27 ft 118 kts 301°
2026-04-24 20:54 25.25700 55.36417 27 ft 174 kts 302°
2026-04-24 20:54 25.26393 55.35144 205 ft 202 kts 301°
2026-04-24 20:54 25.27120 55.33810 774 ft 204 kts 301°
2026-04-24 20:55 25.27816 55.32518 1519 ft 192 kts 302°
2026-04-24 20:55 25.28496 55.31269 2151 ft 188 kts 303°
2026-04-24 20:55 25.29282 55.30094 2484 ft 194 kts 322°
2026-04-24 20:55 25.30507 55.29515 2880 ft 196 kts 354°
2026-04-24 20:56 25.31893 55.29522 2993 ft 205 kts 359°
2026-04-24 20:56 25.33306 55.29554 2996 ft 201 kts 359°
2026-04-24 20:56 25.34693 55.29587 2988 ft 198 kts 359°
2026-04-24 20:56 25.36089 55.29622 3059 ft 208 kts 359°
2026-04-24 20:57 25.37597 55.29658 3319 ft 224 kts 359°
2026-04-24 20:57 25.39180 55.29776 3676 ft 234 kts 13°
2026-04-24 20:57 25.40613 55.30726 3902 ft 256 kts 46°
2026-04-24 20:57 25.41758 55.32312 4160 ft 271 kts 50°
2026-04-24 20:58 25.42950 55.33973 4715 ft 279 kts 50°
2026-04-24 20:58 25.44176 55.35661 5329 ft 283 kts 50°
2026-04-24 20:58 25.45416 55.37367 5995 ft 286 kts 49°
2026-04-24 20:58 25.46675 55.39091 6639 ft 289 kts 49°
2026-04-24 20:59 25.47946 55.40830 7270 ft 292 kts 50°
2026-04-24 20:59 25.49217 55.42603 7892 ft 295 kts 51°
2026-04-24 20:59 25.50474 55.44408 8510 ft 298 kts 51°
2026-04-24 20:59 25.51745 55.46238 9132 ft 301 kts 51°
2026-04-24 21:00 25.52788 55.48249 9642 ft 306 kts 74°
2026-04-24 21:00 25.52916 55.50592 10129 ft 309 kts 102°
2026-04-24 21:00 25.52131 55.52839 10411 ft 321 kts 122°
2026-04-24 21:00 25.50908 55.54993 10573 ft 341 kts 124°
2026-04-24 21:01 25.49573 55.57266 10726 ft 363 kts 124°
2026-04-24 21:01 25.48182 55.59640 10921 ft 382 kts 124°
2026-04-24 21:01 25.46723 55.62160 11389 ft 392 kts 123°
2026-04-24 21:01 25.45245 55.64743 12028 ft 399 kts 123°
2026-04-24 21:02 25.43761 55.67345 12833 ft 401 kts 123°
2026-04-24 21:02 25.42394 55.70025 13480 ft 403 kts 112°
2026-04-24 21:02 25.41691 55.73008 13946 ft 410 kts 101°
2026-04-24 21:02 25.41148 55.76136 14469 ft 417 kts 102°
2026-04-24 21:03 25.40532 55.79288 15145 ft 421 kts 103°
2026-04-24 21:03 25.39861 55.82461 15791 ft 425 kts 104°
2026-04-24 21:03 25.39165 55.85673 16420 ft 430 kts 104°
2026-04-24 21:03 25.38464 55.88918 17008 ft 436 kts 104°
2026-04-24 21:04 25.37760 55.92199 17613 ft 441 kts 103°
2026-04-24 21:04 25.37059 55.95476 18211 ft 446 kts 103°
2026-04-24 21:04 25.36343 55.98835 18766 ft 450 kts 103°
2026-04-24 21:04 25.35621 56.02214 19338 ft 453 kts 104°
2026-04-24 21:05 25.34895 56.05617 19898 ft 457 kts 104°
2026-04-24 21:05 25.34160 56.09053 20451 ft 461 kts 104°
2026-04-24 21:05 25.33422 56.12495 20964 ft 465 kts 104°
2026-04-24 21:05 25.32680 56.16040 21484 ft 469 kts 102°
2026-04-24 21:06 25.32220 56.19582 21975 ft 475 kts 96°
2026-04-24 21:06 25.31969 56.23239 22499 ft 479 kts 94°
2026-04-24 21:06 25.31767 56.26924 23001 ft 483 kts 95°
2026-04-24 21:06 25.31528 56.30659 23495 ft 487 kts 96°
2026-04-24 21:07 25.31237 56.34398 23837 ft 491 kts 96°
2026-04-24 21:07 25.30915 56.38168 24300 ft 492 kts 96°
2026-04-24 21:07 25.30677 56.41949 24772 ft 493 kts 93°
2026-04-24 21:07 25.30574 56.45713 25184 ft 496 kts 92°
2026-04-24 21:08 25.30496 56.49534 25569 ft 500 kts 92°
2026-04-24 21:08 25.30399 56.53397 25968 ft 502 kts 93°
2026-04-24 21:08 25.30104 56.57250 26377 ft 503 kts 100°
2026-04-24 21:08 25.29423 56.61054 26780 ft 504 kts 105°
2026-04-24 21:09 25.28446 56.64784 27172 ft 505 kts 111°
2026-04-24 21:09 25.27161 56.68360 27531 ft 506 kts 115°
2026-04-24 21:09 25.25779 56.71942 27862 ft 506 kts 115°
2026-04-24 21:09 25.24374 56.75545 28066 ft 512 kts 115°
2026-04-24 21:10 25.22962 56.79175 28358 ft 515 kts 115°
2026-04-24 21:10 25.21552 56.82828 28734 ft 517 kts 115°
2026-04-24 21:10 25.20150 56.86488 29100 ft 518 kts 115°
2026-04-24 21:10 25.18768 56.90116 29508 ft 518 kts 115°
2026-04-24 21:11 25.17376 56.93779 29998 ft 517 kts 115°
2026-04-24 21:11 25.15984 56.97441 30408 ft 515 kts 115°
2026-04-24 21:11 25.14596 57.01091 30785 ft 515 kts 115°
2026-04-24 21:11 25.13204 57.04745 31135 ft 515 kts 115°
2026-04-24 21:12 25.11812 57.08392 31486 ft 515 kts 115°
2026-04-24 21:12 25.10887 57.10815 31715 ft 515 kts 115°
2026-04-24 21:12 25.09040 57.15645 32195 ft 515 kts 115°
2026-04-24 21:12 25.07650 57.19274 32536 ft 515 kts 115°
2026-04-24 21:13 25.06252 57.22923 32856 ft 515 kts 115°
2026-04-24 21:13 25.04858 57.26558 33175 ft 515 kts 115°
2026-04-24 21:13 25.03461 57.30199 33523 ft 514 kts 114°
2026-04-24 21:13 25.02085 57.33782 33827 ft 514 kts 114°
2026-04-24 21:14 25.00690 57.37411 34113 ft 514 kts 114°
2026-04-24 21:14 24.99293 57.41043 34359 ft 514 kts 114°
2026-04-24 21:14 24.97892 57.44680 34587 ft 515 kts 114°
2026-04-24 21:14 24.96490 57.48317 34771 ft 517 kts 114°
2026-04-24 21:15 24.93665 57.55639 34839 ft 518 kts 114°
2026-04-24 21:15 24.90857 57.62906 34833 ft 512 kts 114°
2026-04-24 21:16 24.88088 57.70057 34839 ft 510 kts 114°
2026-04-24 21:16 24.85304 57.77238 34842 ft 509 kts 114°
2026-04-24 21:17 24.82497 57.84419 34841 ft 509 kts 115°
2026-04-24 21:17 24.79980 57.90274 34845 ft 510 kts 117°
2026-04-24 21:18 24.76311 57.98461 34842 ft 511 kts 117°
2026-04-24 21:18 24.73205 58.05466 34845 ft 512 kts 117°
2026-04-24 21:19 24.70098 58.12543 34843 ft 513 kts 117°
2026-04-24 21:19 24.66998 58.19612 34839 ft 513 kts 116°
2026-04-24 21:20 24.62347 58.30182 34834 ft 513 kts 116°
2026-04-24 21:21 24.59237 58.37233 34833 ft 513 kts 116°
2026-04-24 21:21 24.56120 58.44289 34834 ft 512 kts 116°
2026-04-24 21:22 24.53526 58.50152 34835 ft 512 kts 116°
2026-04-24 21:22 24.50407 58.57194 34835 ft 512 kts 116°
2026-04-24 21:23 24.47308 58.64179 34834 ft 512 kts 116°
2026-04-24 21:23 24.44187 58.71206 34836 ft 512 kts 116°
2026-04-24 21:24 24.41063 58.78228 34839 ft 512 kts 116°
2026-04-24 21:24 24.37952 58.85235 34831 ft 512 kts 116°
2026-04-24 21:25 24.34824 58.92276 34839 ft 512 kts 116°
2026-04-24 21:25 24.31721 58.99252 34838 ft 512 kts 116°
2026-04-24 21:26 24.28592 59.06273 34838 ft 512 kts 116°
2026-04-24 21:26 24.25461 59.13288 34834 ft 512 kts 116°
2026-04-24 21:27 24.22329 59.20293 34840 ft 511 kts 116°
2026-04-24 21:27 24.19198 59.27289 34838 ft 511 kts 116°
2026-04-24 21:28 24.16068 59.34270 34842 ft 511 kts 116°
2026-04-24 21:28 24.12936 59.41244 34842 ft 510 kts 116°
2026-04-24 21:29 24.09814 59.48189 34841 ft 510 kts 116°
2026-04-24 21:29 24.06670 59.55162 34841 ft 510 kts 116°
2026-04-24 21:30 24.03519 59.62126 34840 ft 510 kts 116°
2026-04-24 21:30 24.00377 59.69062 34842 ft 509 kts 116°
2026-04-24 21:31 23.97245 59.75970 34843 ft 509 kts 116°
2026-04-24 21:31 23.94099 59.82899 34841 ft 509 kts 116°
2026-04-24 21:32 23.90945 59.89837 34841 ft 508 kts 116°
2026-04-24 21:32 23.87800 59.96743 34842 ft 507 kts 116°
2026-04-24 21:33 23.84670 60.03607 34841 ft 507 kts 116°
2026-04-24 21:33 23.81521 60.10502 34839 ft 506 kts 116°
2026-04-24 21:34 23.78372 60.17387 34842 ft 506 kts 116°
2026-04-24 21:34 23.75224 60.24260 34841 ft 505 kts 116°
2026-04-24 21:35 23.72101 60.31069 34840 ft 505 kts 116°
2026-04-24 21:35 23.68956 60.37917 34840 ft 504 kts 116°
2026-04-24 21:36 23.65806 60.44765 34840 ft 504 kts 116°
2026-04-24 21:36 23.62655 60.51605 34843 ft 504 kts 116°
2026-04-24 21:37 23.59524 60.58391 34844 ft 504 kts 116°
2026-04-24 21:37 23.56368 60.65224 34840 ft 504 kts 116°
2026-04-24 21:38 23.53212 60.72046 34839 ft 504 kts 116°
2026-04-24 21:38 23.50052 60.78867 34845 ft 504 kts 116°
2026-04-24 21:39 23.46905 60.85650 34843 ft 504 kts 116°
2026-04-24 21:39 23.43766 60.92407 34842 ft 504 kts 116°
2026-04-24 21:40 23.40596 60.99222 34848 ft 504 kts 116°
2026-04-24 21:40 23.37442 61.05993 34844 ft 505 kts 116°
2026-04-24 21:41 23.34259 61.12819 34844 ft 505 kts 116°
2026-04-24 21:41 23.31080 61.19636 34843 ft 505 kts 115°
2026-04-24 21:42 23.28022 61.26468 34844 ft 504 kts 114°
2026-04-24 21:42 23.24989 61.33351 34845 ft 504 kts 114°
2026-04-24 21:43 23.21935 61.40234 34845 ft 504 kts 114°
2026-04-24 21:43 23.18890 61.47054 34845 ft 503 kts 114°
2026-04-24 21:44 23.15825 61.53906 34843 ft 503 kts 114°
2026-04-24 21:44 23.12774 61.60722 34844 ft 502 kts 115°
2026-04-24 21:45 23.09740 61.67492 34846 ft 500 kts 115°
2026-04-24 21:45 23.06687 61.74295 34847 ft 499 kts 115°
2026-04-24 21:46 23.03644 61.81067 34847 ft 498 kts 115°
2026-04-24 21:46 23.00604 61.87830 34850 ft 498 kts 114°
2026-04-24 21:47 22.97575 61.94564 34851 ft 497 kts 115°
2026-04-24 21:47 22.94548 62.01280 34849 ft 497 kts 115°
2026-04-24 21:48 22.91507 62.08021 34850 ft 497 kts 115°
2026-04-24 21:48 22.88461 62.14762 34849 ft 497 kts 115°
2026-04-24 21:49 22.85429 62.21462 34851 ft 497 kts 115°
2026-04-24 21:49 22.82377 62.28200 34853 ft 497 kts 115°
2026-04-24 21:50 22.79322 62.34933 34854 ft 497 kts 115°
2026-04-24 21:50 22.76281 62.41626 34854 ft 497 kts 115°
2026-04-24 21:51 22.73227 62.48339 34854 ft 496 kts 115°
2026-04-24 21:51 22.70169 62.55051 34854 ft 495 kts 115°
2026-04-24 21:52 22.67121 62.61732 34854 ft 494 kts 115°
2026-04-24 21:52 22.64095 62.68357 34847 ft 493 kts 115°
2026-04-24 21:53 22.61053 62.75008 34851 ft 492 kts 115°
2026-04-24 21:53 22.58020 62.81629 34857 ft 491 kts 115°
2026-04-24 21:54 22.54988 62.88241 34860 ft 490 kts 115°
2026-04-24 21:54 22.51959 62.94836 34856 ft 489 kts 115°
2026-04-24 21:55 22.48934 63.01416 34857 ft 488 kts 115°
2026-04-24 21:55 22.45924 63.07956 34859 ft 487 kts 115°
2026-04-24 21:56 22.42917 63.14510 34860 ft 487 kts 114°
2026-04-24 21:56 22.39965 63.21110 34858 ft 487 kts 114°
2026-04-24 21:57 22.37049 63.27665 34859 ft 486 kts 114°
2026-04-24 21:57 22.34110 63.34242 34858 ft 486 kts 114°
2026-04-24 21:58 22.31160 63.40822 34860 ft 486 kts 114°
2026-04-24 21:58 22.28206 63.47397 34866 ft 486 kts 114°
2026-04-24 21:59 22.25245 63.53977 34864 ft 486 kts 114°
2026-04-24 21:59 22.22287 63.60545 34862 ft 486 kts 114°
2026-04-24 22:00 22.19341 63.67077 34862 ft 486 kts 114°
2026-04-24 22:00 22.16380 63.73633 34866 ft 486 kts 114°
2026-04-24 22:01 22.13411 63.80200 34865 ft 486 kts 114°
2026-04-24 22:01 22.10439 63.86765 34867 ft 486 kts 114°
2026-04-24 22:02 22.07485 63.93280 34868 ft 486 kts 114°
2026-04-24 22:02 22.04512 63.99830 34868 ft 486 kts 114°
2026-04-24 22:03 22.01529 64.06393 34866 ft 486 kts 114°
2026-04-24 22:03 21.98551 64.12937 34871 ft 486 kts 114°
2026-04-24 22:04 21.95568 64.19482 34865 ft 486 kts 114°
2026-04-24 22:04 21.92609 64.25967 34871 ft 485 kts 114°
2026-04-24 22:05 21.89634 64.32477 34872 ft 484 kts 114°
2026-04-24 22:05 21.86659 64.38981 34864 ft 484 kts 114°
2026-04-24 22:06 21.83667 64.45515 34869 ft 484 kts 114°
2026-04-24 22:06 21.80704 64.51974 34870 ft 484 kts 114°
2026-04-24 22:07 21.77723 64.58465 34872 ft 484 kts 114°
2026-04-24 22:07 21.74736 64.64963 34873 ft 484 kts 115°
2026-04-24 22:08 21.71764 64.71418 34861 ft 484 kts 115°
2026-04-24 22:08 21.68772 64.77909 34876 ft 484 kts 115°
2026-04-24 22:09 21.65784 64.84385 34876 ft 484 kts 115°
2026-04-24 22:09 21.62805 64.90832 34878 ft 484 kts 115°
2026-04-24 22:10 21.59807 64.97310 34868 ft 484 kts 115°
2026-04-24 22:10 21.56804 65.03793 34862 ft 484 kts 115°
2026-04-24 22:11 21.53814 65.10239 34871 ft 484 kts 115°
2026-04-24 22:11 21.50805 65.16719 34881 ft 484 kts 115°
2026-04-24 22:12 21.47798 65.23186 34873 ft 484 kts 115°
2026-04-24 22:12 21.44791 65.29644 34875 ft 483 kts 115°
2026-04-24 22:13 21.41798 65.36065 34875 ft 483 kts 115°
2026-04-24 22:13 21.38782 65.42527 34876 ft 483 kts 115°
2026-04-24 22:14 21.35784 65.48944 34878 ft 483 kts 115°
2026-04-24 22:14 21.32769 65.55386 34883 ft 483 kts 115°
2026-04-24 22:15 21.30263 65.60739 34877 ft 483 kts 115°
2026-04-24 22:15 21.27240 65.67185 34884 ft 483 kts 115°
2026-04-24 22:16 21.24218 65.73622 34877 ft 483 kts 115°
2026-04-24 22:16 21.21196 65.80052 34880 ft 483 kts 115°
2026-04-24 22:17 21.18173 65.86477 34883 ft 483 kts 115°
2026-04-24 22:17 21.15165 65.92862 34881 ft 483 kts 115°
2026-04-24 22:18 21.12139 65.99278 34879 ft 483 kts 115°
2026-04-24 22:18 21.09158 66.05725 34881 ft 482 kts 114°
2026-04-24 22:19 21.06238 66.12191 34886 ft 482 kts 114°
2026-04-24 22:19 21.03311 66.18665 34882 ft 482 kts 114°
2026-04-24 22:20 21.00399 66.25075 34878 ft 482 kts 114°
2026-04-24 22:20 20.97460 66.31520 34880 ft 481 kts 114°
2026-04-24 22:21 20.94522 66.37955 34879 ft 481 kts 114°
2026-04-24 22:21 20.91577 66.44400 34883 ft 481 kts 114°
2026-04-24 22:22 20.88636 66.50827 34879 ft 481 kts 114°
2026-04-24 22:22 20.85711 66.57212 34881 ft 480 kts 114°
2026-04-24 22:23 20.82773 66.63618 34884 ft 480 kts 114°
2026-04-24 22:23 20.79830 66.70029 34879 ft 480 kts 114°
2026-04-24 22:24 20.76881 66.76443 34878 ft 480 kts 114°
2026-04-24 22:24 20.73943 66.82825 34877 ft 480 kts 114°
2026-04-24 22:25 20.70985 66.89246 34878 ft 480 kts 114°
2026-04-24 22:25 20.68031 66.95647 34878 ft 481 kts 114°
2026-04-24 22:26 20.65087 67.02021 34879 ft 481 kts 114°
2026-04-24 22:26 20.62119 67.08439 34878 ft 481 kts 114°
2026-04-24 22:27 20.59166 67.14815 34874 ft 481 kts 114°
2026-04-24 22:27 20.56196 67.21224 34876 ft 482 kts 114°
2026-04-24 22:28 20.53222 67.27631 34871 ft 482 kts 114°
2026-04-24 22:28 20.50239 67.34050 34872 ft 482 kts 114°
2026-04-24 22:29 20.45760 67.43677 34868 ft 483 kts 115°
2026-04-24 22:29 20.42785 67.50058 34873 ft 483 kts 115°
2026-04-24 22:30 20.39783 67.56493 34873 ft 484 kts 115°
2026-04-24 22:30 20.36783 67.62916 34872 ft 484 kts 115°
2026-04-24 22:31 20.33792 67.69312 34869 ft 484 kts 115°
2026-04-24 22:31 20.30783 67.75737 34866 ft 484 kts 115°
2026-04-24 22:32 20.27770 67.82166 34866 ft 484 kts 115°
2026-04-24 22:32 20.24775 67.88546 34865 ft 484 kts 115°
2026-04-24 22:33 20.21762 67.94958 34859 ft 485 kts 115°
2026-04-24 22:33 20.18736 68.01391 34861 ft 485 kts 115°
2026-04-24 22:34 20.15733 68.07768 34867 ft 485 kts 115°
2026-04-24 22:34 20.12706 68.14190 34866 ft 485 kts 115°
2026-04-24 22:35 20.09669 68.20623 34828 ft 485 kts 114°
2026-04-24 22:35 20.06642 68.27024 34850 ft 483 kts 114°
2026-04-24 22:36 20.03645 68.33359 34855 ft 481 kts 114°
2026-04-24 22:36 20.00640 68.39706 34855 ft 480 kts 115°
2026-04-24 22:37 19.97634 68.46046 34857 ft 479 kts 115°
2026-04-24 22:37 19.94628 68.52377 34858 ft 479 kts 115°
2026-04-24 22:38 19.91635 68.58675 34859 ft 480 kts 115°
2026-04-24 22:38 19.88613 68.65028 34861 ft 482 kts 115°
2026-04-24 22:39 19.85582 68.71392 34863 ft 483 kts 115°
2026-04-24 22:39 19.82566 68.77715 34853 ft 484 kts 115°
2026-04-24 22:40 19.79530 68.84074 34857 ft 485 kts 115°
2026-04-24 22:40 19.76472 68.90471 34850 ft 485 kts 115°
2026-04-24 22:41 19.73410 68.96873 34856 ft 486 kts 115°
2026-04-24 22:41 19.70366 69.03229 34850 ft 486 kts 115°
2026-04-24 22:42 19.67301 69.09619 34850 ft 485 kts 116°
2026-04-24 22:42 19.64237 69.16002 34851 ft 485 kts 116°
2026-04-24 22:43 19.61169 69.22386 34856 ft 485 kts 116°
2026-04-24 22:43 19.58116 69.28735 34853 ft 485 kts 116°
2026-04-24 22:44 19.55046 69.35110 34855 ft 485 kts 116°
2026-04-24 22:44 19.52065 69.41511 34854 ft 485 kts 114°
2026-04-24 22:45 19.49154 69.47923 34856 ft 485 kts 114°
2026-04-24 22:45 19.46212 69.54387 34848 ft 485 kts 115°
2026-04-24 22:46 19.43264 69.60823 34850 ft 485 kts 115°
2026-04-24 22:46 19.40324 69.67220 34854 ft 486 kts 115°
2026-04-24 22:47 19.37354 69.73672 34846 ft 486 kts 115°
2026-04-24 22:47 19.34407 69.80071 34847 ft 486 kts 115°
2026-04-24 22:48 19.31435 69.86516 34843 ft 487 kts 116°
2026-04-24 22:48 19.28457 69.92970 34847 ft 487 kts 116°
2026-04-24 22:49 19.25480 69.99411 34845 ft 488 kts 116°
2026-04-24 22:49 19.22511 70.05828 34841 ft 488 kts 116°
2026-04-24 22:50 19.19510 70.12308 34842 ft 489 kts 116°
2026-04-24 22:50 19.16528 70.18741 34846 ft 490 kts 117°
2026-04-24 22:51 19.13523 70.25214 34840 ft 490 kts 117°
2026-04-24 22:51 19.10513 70.31692 34838 ft 491 kts 117°
2026-04-24 22:52 19.07495 70.38179 34840 ft 491 kts 118°
2026-04-24 22:52 19.04488 70.44637 34839 ft 492 kts 117°
2026-04-24 22:53 19.01453 70.51147 34838 ft 493 kts 118°
2026-04-24 22:53 18.98436 70.57609 34834 ft 492 kts 118°
2026-04-24 22:54 18.95398 70.64109 34833 ft 492 kts 118°
2026-04-24 22:54 18.92361 70.70603 34835 ft 492 kts 118°
2026-04-24 22:55 18.89318 70.77100 34832 ft 492 kts 118°
2026-04-24 22:55 18.86303 70.83532 34837 ft 492 kts 118°
2026-04-24 22:56 18.83254 70.90028 34835 ft 492 kts 119°
2026-04-24 22:56 18.80225 70.96475 34832 ft 493 kts 119°
2026-04-24 22:57 18.77177 71.02955 34832 ft 493 kts 119°
2026-04-24 22:57 18.74121 71.09443 34831 ft 493 kts 120°
2026-04-24 22:58 18.71067 71.15921 34830 ft 493 kts 120°
2026-04-24 22:58 18.68031 71.22355 34830 ft 493 kts 120°
2026-04-24 22:59 18.64973 71.28828 34829 ft 492 kts 120°
2026-04-24 23:00 18.60378 71.38541 34830 ft 492 kts 120°
2026-04-24 23:00 18.57343 71.44949 34826 ft 491 kts 120°
2026-04-24 23:01 18.54289 71.51389 34827 ft 491 kts 120°
2026-04-24 23:01 18.51229 71.57834 34833 ft 490 kts 121°
2026-04-24 23:02 18.48194 71.64220 34834 ft 489 kts 120°
2026-04-24 23:02 18.45146 71.70628 34837 ft 489 kts 120°
2026-04-24 23:03 18.42096 71.77031 34837 ft 489 kts 120°
2026-04-24 23:03 18.39041 71.83437 34838 ft 489 kts 120°
2026-04-24 23:04 18.35998 71.89813 34838 ft 490 kts 120°
2026-04-24 23:04 18.32929 71.96237 34842 ft 491 kts 120°
2026-04-24 23:05 18.29858 72.02659 34838 ft 492 kts 120°
2026-04-24 23:05 18.26773 72.09102 34834 ft 493 kts 120°
2026-04-24 23:06 18.23700 72.15515 34831 ft 494 kts 121°
2026-04-24 23:06 18.20602 72.21972 34828 ft 495 kts 121°
2026-04-24 23:07 18.17492 72.28448 34830 ft 496 kts 121°
2026-04-24 23:07 18.14377 72.34927 34830 ft 497 kts 121°
2026-04-24 23:08 18.11265 72.41392 34823 ft 498 kts 122°
2026-04-24 23:08 18.08134 72.47891 34821 ft 499 kts 122°
2026-04-24 23:09 18.05523 72.53306 34824 ft 500 kts 122°
2026-04-24 23:09 18.02367 72.59844 34815 ft 501 kts 123°
2026-04-24 23:10 17.99232 72.66332 34819 ft 502 kts 123°
2026-04-24 23:10 17.96065 72.72880 34816 ft 502 kts 123°
2026-04-24 23:11 17.92889 72.79439 34810 ft 503 kts 124°
2026-04-24 23:11 17.89731 72.85954 34821 ft 503 kts 124°
2026-04-24 23:12 17.86554 72.92503 34818 ft 503 kts 124°
2026-04-24 23:12 17.83375 72.99046 34814 ft 503 kts 124°
2026-04-24 23:13 17.80191 73.05596 34817 ft 503 kts 125°
2026-04-24 23:13 17.77008 73.12136 34818 ft 502 kts 125°
2026-04-24 23:14 17.73837 73.18646 34816 ft 503 kts 125°
2026-04-24 23:14 17.70648 73.25178 34824 ft 502 kts 125°
2026-04-24 23:15 17.67472 73.31664 34822 ft 502 kts 125°
2026-04-24 23:15 17.64278 73.38183 34827 ft 502 kts 125°
2026-04-24 23:16 17.61077 73.44708 34826 ft 503 kts 125°
2026-04-24 23:16 17.57900 73.51180 34840 ft 502 kts 125°
2026-04-24 23:17 17.54698 73.57699 34854 ft 502 kts 125°
2026-04-24 23:17 17.51497 73.64209 34867 ft 502 kts 125°
2026-04-24 23:18 17.48292 73.70720 34856 ft 502 kts 126°
2026-04-24 23:18 17.45104 73.77188 34861 ft 501 kts 125°
2026-04-24 23:19 17.41903 73.83678 34883 ft 501 kts 125°
2026-04-24 23:19 17.38704 73.90156 34888 ft 501 kts 125°
2026-04-24 23:20 17.35493 73.96651 34884 ft 502 kts 125°
2026-04-24 23:20 17.32297 74.03110 34873 ft 502 kts 125°
2026-04-24 23:21 17.29079 74.09610 34889 ft 502 kts 125°
2026-04-24 23:21 17.25853 74.16117 34887 ft 503 kts 125°
2026-04-24 23:22 17.22643 74.22588 34881 ft 503 kts 125°
2026-04-24 23:22 17.19408 74.29103 34885 ft 504 kts 125°
2026-04-24 23:23 17.16195 74.35583 34877 ft 504 kts 125°
2026-04-24 23:23 17.12967 74.42093 34880 ft 504 kts 125°
2026-04-24 23:24 17.09735 74.48604 34872 ft 505 kts 125°
2026-04-24 23:24 17.06492 74.55130 34872 ft 505 kts 125°
2026-04-24 23:25 17.03250 74.61646 34872 ft 505 kts 125°
2026-04-24 23:25 17.00029 74.68116 34873 ft 504 kts 125°
2026-04-24 23:26 16.96785 74.74623 34867 ft 504 kts 124°
2026-04-24 23:26 16.93537 74.81133 34865 ft 504 kts 124°
2026-04-24 23:27 16.90316 74.87582 34867 ft 503 kts 125°
2026-04-24 23:27 16.87071 74.94074 34863 ft 503 kts 125°
2026-04-24 23:28 16.83835 75.00541 34862 ft 503 kts 125°
2026-04-24 23:28 16.80596 75.07007 34863 ft 502 kts 125°
2026-04-24 23:29 16.77356 75.13469 34857 ft 502 kts 125°
2026-04-24 23:29 16.74138 75.19883 34864 ft 502 kts 125°
2026-04-24 23:30 16.70898 75.26333 34856 ft 501 kts 125°
2026-04-24 23:30 16.67657 75.32778 34862 ft 501 kts 125°
2026-04-24 23:31 16.64415 75.39221 34851 ft 501 kts 125°
2026-04-24 23:31 16.61168 75.45668 34853 ft 501 kts 125°
2026-04-24 23:32 16.58045 75.52133 34853 ft 503 kts 123°
2026-04-24 23:32 16.55031 75.58729 34858 ft 503 kts 122°
2026-04-24 23:33 16.52005 75.65324 34860 ft 503 kts 123°
2026-04-24 23:33 16.48956 75.71895 34857 ft 503 kts 123°
2026-04-24 23:34 16.45899 75.78457 34863 ft 504 kts 123°
2026-04-24 23:34 16.42847 75.85004 34866 ft 504 kts 123°
2026-04-24 23:35 16.39780 75.91583 34862 ft 504 kts 123°
2026-04-24 23:35 16.36730 75.98119 34865 ft 504 kts 123°
2026-04-24 23:36 16.33748 76.04722 33827 ft 524 kts 117°
2026-04-24 23:36 16.32691 76.08368 32854 ft 536 kts 108°
2026-04-24 23:36 16.32202 76.12222 32274 ft 540 kts 95°
2026-04-24 23:36 16.32646 76.16097 31879 ft 537 kts 78°
2026-04-24 23:37 16.34101 76.19662 31465 ft 539 kts 57°
2026-04-24 23:37 16.36641 76.22551 30913 ft 544 kts 35°
2026-04-24 23:37 16.43181 76.26337 29830 ft 554 kts 36°
2026-04-24 23:38 16.45947 76.29140 28258 ft 555 kts 48°
2026-04-24 23:38 16.48646 76.32009 25399 ft 550 kts 45°
2026-04-24 23:38 16.51292 76.34939 20172 ft 556 kts 48°
2026-04-24 23:38 16.54310 76.37328 16769 ft 532 kts 27°
2026-04-24 23:39 16.57351 76.39187 15398 ft 501 kts 36°
2026-04-24 23:39 16.59576 76.41462 17580 ft 365 kts 47°
2026-04-24 23:39 16.61048 76.43181 21214 ft 283 kts 50°
2026-04-24 23:39 16.62264 76.44682 22640 ft 265 kts 52°
2026-04-24 23:40 16.63478 76.46233 21898 ft 289 kts 52°
2026-04-24 23:40 16.64867 76.48046 18951 ft 359 kts 52°
2026-04-24 23:40 16.66589 76.50405 15214 ft 456 kts 53°
2026-04-24 23:40 16.68499 76.53121 12601 ft 465 kts 54°
2026-04-24 23:41 16.70446 76.55830 9158 ft 460 kts 53°
2026-04-24 23:41 16.71702 76.58731 6894 ft 429 kts 86°
2026-04-24 23:41 16.71260 76.61768 3776 ft 426 kts 101°
2026-04-24 23:41 16.70886 76.64758 3399 ft 400 kts 93°
2026-04-24 23:42 16.70697 76.67636 1991 ft 404 kts 96°
2026-04-24 23:42 16.70243 76.70397 1878 ft 359 kts 101°
2026-04-24 23:42 16.69795 76.72762 2570 ft 318 kts 100°
2026-04-24 23:42 16.69488 76.74345 2663 ft 305 kts 101°
2026-04-24 23:43 16.69093 76.76319 1541 ft 142 kts 97°
2026-04-24 23:43 16.69098 76.76931 1531 ft 30 kts 86°
2026-04-24 23:43 16.69108 76.77110 1528 ft 30 kts 86°